This demonstration page uses our WeatherBlox Daily Observations layout. Learn more.

Left ArrowRight Arrow

36.17497, -115.13722

Hourly Observations for March 14, 2016

Temp ( °F °C ) Dew Point ( °F °C ) Humidity (%) Winds ( mph kmh ) Pressure ( in mb ) Visibility ( mi km ) Precip ( " mm )
12:53 am 00:53 Clear 58 14.4 37 2.8 46 46 W 6 9 29.91 1013 10 16.0934 0 0
1:53 am 01:53 Clear 56 13.3 38 3.3 51 51 W 8 13 29.93 1013 10 16.0934 0 0
2:53 am 02:53 Clear 54 12.2 39 3.9 57 57 Calm 29.92 1013 10 16.0934 0 0
3:53 am 03:53 Clear 54 12.2 39 3.9 57 57 N 5 7 29.92 1013 10 16.0934 0 0
4:53 am 04:53 Clear 53 11.7 39 3.9 59 59 NNW 7 11 29.93 1013 10 16.0934 0 0
5:53 am 05:53 Clear 51 10.6 40 4.4 66 66 NNW 6 9 29.95 1014 10 16.0934 0 0
6:53 am 06:53 Sunny 51 10.6 37 2.8 59 59 NNW 7 11 29.96 1015 10 16.0934 0 0
7:53 am 07:53 Sunny 52 11.1 38 3.3 59 59 NW 5 7 29.99 1016 10 16.0934 0 0
8:53 am 08:53 Sunny 55 12.8 40 4.4 57 57 N 5 7 30.01 1016 10 16.0934 0 0
9:53 am 09:53 Sunny 56 13.3 40 4.4 55 55 Calm 30.03 1017 10 16.0934 0 0
10:53 am 10:53 Sunny 60 15.6 40 4.4 47 47 Calm 30.03 1017 10 16.0934 0 0
11:53 am 11:53 Sunny 59 15 40 4.4 49 49 Calm 30.01 1016 10 16.0934 0 0
12:53 pm 12:53 Sunny 64 17.8 40 4.4 41 41 Calm 30.01 1016 10 16.0934 0 0
1:53 pm 13:53 Sunny 67 19.4 40 4.4 37 37 E 5 7 29.98 1015 10 16.0934 0 0
2:53 pm 14:53 Sunny 68 20 40 4.4 36 36 Calm 29.97 1015 10 16.0934 0 0
3:53 pm 15:53 Sunny 70 21.1 39 3.9 32 32 undefined N/A 29.96 1015 10 16.0934 0 0
4:53 pm 16:53 Sunny 70 21.1 39 3.9 32 32 Calm 29.95 1014 10 16.0934 0 0
5:53 pm 17:53 Sunny 71 21.7 38 3.3 30 30 SSE 8 13 29.95 1014 10 16.0934 0 0
6:53 pm 18:53 Clear 71 21.7 35 1.7 27 27 Calm 29.96 1015 10 16.0934 0 0
7:53 pm 19:53 Clear 69 20.6 31 -0.6 24 24 NNW 6 9 29.99 1016 10 16.0934 0 0
8:53 pm 20:53 Clear 66 18.9 31 -0.6 27 27 NNW 7 11 30.01 1016 10 16.0934 0 0
9:53 pm 21:53 Clear 65 18.3 31 -0.6 28 28 NNW 12 19 30.04 1017 10 16.0934 0 0
10:53 pm 22:53 Clear 63 17.2 33 0.6 33 33 NNW 12 19 30.05 1018 10 16.0934 0 0
11:53 pm 23:53 Clear 62 16.7 34 1.1 35 35 NNW 10 17 30.07 1018 10 16.0934 0 0

Powered by AerisWeather